Miscellaneous Local Product
Issued by NWS North Platte, NE

Home | Current Version | Previous Version | Text Only | Print | Product List | Glossary On
Versions: 1 2 3 4 5 6 7 8 9 10 11 12 13 14 15 16 17 18 19 20 21 22 23 24 25 26 27 28 29 30 31 32 33 34 35 36 37 38 39 40 41 42 43 44 45 46 47 48 49 50
000
AXUS43 KLBF 280310
MISLBF


WESTERN AND NORTH CENTRAL NEBRASKA HOURLY WEATHER ROUNDUP
NATIONAL WEATHER SERVICE NORTH PLATTE NE
1000 PM CDT MON JUL 27 2015

***STATIONS NOT REPORTING VARIABLES SUCH AS SKY/WEATHER OR
PRESSURE ARE PROVIDED BY THE NEBRASKA DEPARTMENT OF
ROADS...RAWS...AND APRS NETWORKS...AND ARE NOT UNDER
NATIONAL WEATHER SERVICE QUALITY CONTROL***

...OBSERVATIONS IN AND NEAR THE EASTERN PANHANDLE OF NEBRASKA...

CITY           SKY/WX    TMP DP  RH WIND       PRES   REMARKS
PINE RIDGE     CLOUDY    68  60  75 E5        29.69F
CHADRON        MOCLDY    72  59  63 W12       29.75R
ALLIANCE       MOCLDY    69  58  67 SE10      29.70F
SIDNEY         PTCLDY    81  63  54 S14       29.77R
BIG SPRINGS      N/A     81  70  68 SE10        N/A
$$

...OBSERVATIONS IN NORTH CENTRAL NEBRASKA...

CITY           SKY/WX    TMP DP  RH WIND       PRES   REMARKS
VALENTINE      PTCLDY    84  71  65 SE14      29.71R
THEDFORD       PTCLDY    83  73  72 SE15      29.74S
AINSWORTH      PTCLDY    83  72  69 SE13      29.74S
O`NEILL        CLEAR     82  72  71 SE14      29.77R
ORD            PTCLDY    82  73  74 SE16      29.75R
BROKEN BOW     CLEAR     82  72  71 SE12      29.77R
SPRINGVIEW       N/A     82  72  72 E5G12       N/A
CHAMBERS         N/A     79  72  78 N3          N/A
EWING            N/A     78  73  86 CALM        N/A
$$

...OBSERVATIONS IN SOUTHWEST NEBRASKA AND FAR NORTHEAST COLORADO...

CITY           SKY/WX    TMP DP  RH WIND       PRES   REMARKS
WRAY           FAIR      84  65  53 SE12      29.76R
HOLYOKE        FAIR      81  68  65 SE8       29.76R
IMPERIAL       CLEAR     84  69  60 SE13      29.74R
OGALLALA       CLEAR     83  69  63 SE10      29.73R
NORTH PLATTE   CLEAR     84  70  62 SE13      29.74R
MCCOOK         CLEAR     86  68  54 S15G23    29.73R
LEXINGTON      CLEAR     84  70  61 SE10      29.76R
PAXTON           N/A     80  72  76 SE12        N/A
BRADY            N/A     81  71  72 CALM        N/A
CALLAWAY         N/A     79  73  81 S13         N/A
$$

...NORTH PLATTE AREA...

CITY           SKY/WX    TMP DP  RH WIND       PRES   REMARKS
AIRPORT        CLEAR     84  70  62 SE13      29.74R
DOWNTOWN         N/A     85  72  65 CALM        N/A  HX  91
HILLCREST        N/A     83  72  68 SE14        N/A
$$

...SOME WEATHER OBSERVATIONS FROM AROUND THE REGION...

CITY           SKY/WX    TMP DP  RH WIND       PRES   REMARKS
DENVER         PTCLDY    87  38  17 W12       29.88R
LARAMIE        CLEAR     64  35  34 NW23G29   30.05R
CHEYENNE       PTCLDY    78  35  21 W14       29.94R
SCOTTSBLUFF    MOCLDY    73  64  73 VRB3      29.74S
RAPID CITY     CLOUDY    66  63  90 NW13      29.70R
PIERRE         PTCLDY    84  69  60 SE12      29.64S
WINNER         FAIR      86  70  58 SE16      29.68F HX  90
SIOUX FALLS    PTCLDY    80  73  79 S16G23    29.81R
OMAHA          PTCLDY    78  71  79 SE14      29.85R
GRAND ISLAND   CLEAR     81  75  82 SE12      29.79R
KANSAS CITY    PTCLDY    82  73  74 SE8       29.89R
WICHITA        PTCLDY    85  69  58 S14       29.85R
HAYS           CLEAR     84  66  54 SE14      29.79S
LIBERAL        CLEAR     88  63  42 S14       29.85R
GOODLAND       CLEAR     82  68  62 S16       29.78R
$$



USA.gov is the U.S. government's official web portal to all federal, state and local government web resources and services.